Sturgis, MI

4:52 PM EST on December 08, 2019 (GMT -0500)
Kirsch Municipal

Weather History for KIRS - October, 2019

Change the Weather History Date:

Sunday, October 6, 2019

  Actual Average (KHAI) Record (KHAI)
Temperature  
Mean Temperature 60 °F -  
Max Temperature 67 °F 65 °F 89 °F (1963)
Min Temperature 54 °F 43 °F 26 °F (1966)
Degree Days  
Heating Degree Days 4    
Growing Degree Days 10 (Base 50)    
Moisture  
Dew Point 47 °F    
Average Humidity 64    
Maximum Humidity 87    
Minimum Humidity 35    
Precipitation  
Precipitation 0.00 in - - ()
Sea Level Pressure  
Sea Level Pressure 30.04 in    
Wind  
Wind Speed 6 mph ()    
Max Wind Speed 13 mph    
Max Gust Speed 20 mph    
Visibility 10.0 miles    
Events Rain    
Averages and records for this station are not official NWS values.
T = Trace of Precipitation, MM = Missing Value Source: Averaged Metar Reports

Daily Weather History Graph

Daily Weather History Graph

Search for Another Location

Airport or City:

Astronomy

Oct. 06, 2019 Rise Set
Actual Time 7:43 AM EDT 7:15 PM EDT
Civil Twilight 7:15 AM EDT 7:43 PM EDT
Nautical Twilight 6:43 AM EDT 8:15 PM EDT
Astronomical Twilight 6:11 AM EDT 8:47 PM EDT
Moon 4:00 PM EDT (10/6) 12:34 AM EDT (10/6)
Length of Visible Light 12h 27m
Length of Day
11h 31m
First Quarter, 59% of the Moon is Illuminated
Oct 6
First Quarter
Oct 13
Full
Oct 21
Last Quarter
Oct 27
New
Nov 4
First Quarter

Hourly Weather History & Observations

Time (EDT) Temp. Dew Point Humidity Pressure Visibility Wind Dir Wind Speed Gust Speed Precip Events Conditions
12:00 AM 55.9 °F 52.2 °F 87% 29.94 in 10.0 mi SSE 8.1 mph - N/A Rain Light Rain
12:18 AM 56.7 °F 52.2 °F 85% 29.92 in 10.0 mi SSE 11.5 mph - N/A   Overcast
12:36 AM 57.2 °F 51.8 °F 82% 29.92 in 10.0 mi SSE 9.2 mph - N/A   Overcast
12:55 AM 57.7 °F 51.8 °F 81% 29.93 in 10.0 mi South 4.6 mph - N/A   Overcast
1:15 AM 57.6 °F 52.0 °F 82% 29.94 in 10.0 mi SSW 4.6 mph - N/A   Overcast
1:16 AM 57.6 °F 52.2 °F 82% 29.94 in 10.0 mi SSW 4.6 mph - N/A   Overcast
1:38 AM 57.4 °F 52.7 °F 84% 29.94 in 10.0 mi SSW 3.5 mph - N/A   Overcast
1:57 AM 57.9 °F 52.2 °F 81% 29.93 in 10.0 mi South 4.6 mph - N/A   Overcast
2:15 AM 58.3 °F 51.6 °F 78% 29.93 in 10.0 mi South 6.9 mph - N/A   Overcast
2:35 AM 58.1 °F 52.0 °F 80% 29.95 in 10.0 mi SSW 5.8 mph - N/A   Overcast
2:36 AM 58.1 °F 52.2 °F 81% 29.95 in 10.0 mi SSW 5.8 mph - N/A   Overcast
2:55 AM 58.3 °F 52.2 °F 80% 29.95 in 10.0 mi SSW 4.6 mph - N/A   Overcast
3:18 AM 58.1 °F 52.9 °F 83% 29.95 in 10.0 mi SSW 5.8 mph - N/A   Overcast
3:36 AM 58.5 °F 52.3 °F 80% 29.95 in 10.0 mi SSW 6.9 mph - N/A   Overcast
3:55 AM 58.8 °F 52.3 °F 79% 29.94 in 10.0 mi SW 6.9 mph - N/A   Overcast
3:56 AM 58.8 °F 52.5 °F 80% 29.94 in 10.0 mi SW 6.9 mph - N/A   Overcast
4:15 AM 59.0 °F 53.2 °F 81% 29.94 in 10.0 mi SW 5.8 mph - N/A   Overcast
4:16 AM 59.0 °F 53.2 °F 81% 29.94 in 10.0 mi SW 5.8 mph - N/A   Overcast
4:39 AM 59.2 °F 53.6 °F 82% 29.94 in 10.0 mi WSW 4.6 mph - N/A   Overcast
4:57 AM 59.4 °F 53.6 °F 81% 29.94 in 10.0 mi SW 8.1 mph - N/A   Overcast
5:15 AM 59.4 °F 53.8 °F 82% 29.94 in 10.0 mi WSW 4.6 mph - N/A   Mostly Cloudy
5:35 AM 59.9 °F 54.0 °F 81% 29.94 in 10.0 mi WSW 5.8 mph - N/A   Overcast
5:36 AM 59.9 °F 54.0 °F 81% 29.94 in 10.0 mi WSW 4.6 mph - N/A   Overcast
5:55 AM 59.9 °F 54.1 °F 81% 29.95 in 10.0 mi WSW 4.6 mph - N/A   Overcast
6:17 AM 59.9 °F 54.1 °F 81% 29.95 in 10.0 mi WSW 4.6 mph - N/A   Overcast
6:36 AM 60.4 °F 55.2 °F 83% 29.97 in 10.0 mi WSW 6.9 mph - N/A   Overcast
6:56 AM 60.4 °F 55.4 °F 83% 29.97 in 10.0 mi West 6.9 mph - N/A   Overcast
7:15 AM 60.3 °F 55.6 °F 85% 29.98 in 10.0 mi West 8.1 mph - N/A   Overcast
7:39 AM 59.9 °F 55.4 °F 85% 29.99 in 10.0 mi West 3.5 mph - N/A   Overcast
7:57 AM 59.9 °F 55.4 °F 85% 30.00 in 10.0 mi SW 5.8 mph - N/A   Overcast
8:15 AM 59.7 °F 55.4 °F 86% 30.01 in 10.0 mi WSW 5.8 mph - N/A   Overcast
8:16 AM 59.7 °F 55.6 °F 86% 30.01 in 10.0 mi WSW 6.9 mph - N/A   Overcast
8:35 AM 59.9 °F 54.0 °F 81% 30.02 in 10.0 mi West 9.2 mph - N/A   Overcast
8:36 AM 59.9 °F 53.8 °F 80% 30.02 in 10.0 mi West 8.1 mph - N/A   Overcast
8:55 AM 59.4 °F 51.6 °F 76% 30.03 in 10.0 mi WNW 8.1 mph 16.1 mph N/A   Overcast
9:00 AM 59.4 °F 51.6 °F 76% 30.03 in 10.0 mi WNW 11.5 mph - N/A   Overcast
9:18 AM 58.5 °F 49.8 °F 73% 30.03 in 10.0 mi WNW 6.9 mph 17.3 mph N/A   Scattered Clouds
9:36 AM 59.2 °F 49.1 °F 69% 30.03 in 10.0 mi WNW 10.4 mph - N/A   Clear
9:55 AM 59.4 °F 47.8 °F 66% 30.04 in 10.0 mi WNW 8.1 mph 16.1 mph N/A   Clear
10:15 AM 59.9 °F 47.1 °F 63% 30.04 in 10.0 mi NW 9.2 mph 16.1 mph N/A   Clear
10:16 AM 59.9 °F 47.1 °F 63% 30.04 in 10.0 mi NW 10.4 mph 16.1 mph N/A   Clear
10:39 AM 61.0 °F 48.0 °F 62% 30.05 in 10.0 mi West 9.2 mph - N/A   Clear
10:57 AM 61.5 °F 47.5 °F 60% 30.06 in 10.0 mi NW 9.2 mph - N/A   Scattered Clouds
11:15 AM 61.7 °F 47.3 °F 59% 30.07 in 10.0 mi WNW 6.9 mph - N/A   Scattered Clouds
11:16 AM 61.9 °F 47.7 °F 60% 30.07 in 10.0 mi West 6.9 mph - N/A   Scattered Clouds
11:35 AM 62.8 °F 47.3 °F 57% 30.07 in 10.0 mi West 6.9 mph - N/A   Scattered Clouds
11:36 AM 62.8 °F 47.3 °F 57% 30.07 in 10.0 mi WNW 5.8 mph - N/A   Scattered Clouds
11:55 AM 63.3 °F 47.3 °F 56% 30.07 in 10.0 mi WNW 8.1 mph - N/A   Clear
12:00 PM 63.0 °F 46.4 °F 55% 30.08 in 10.0 mi West 9.2 mph - N/A   Scattered Clouds
12:17 PM 64.2 °F 45.9 °F 51% 30.09 in 10.0 mi WNW 10.4 mph 19.6 mph N/A   Clear
12:36 PM 64.6 °F 44.1 °F 47% 30.10 in 10.0 mi WNW 8.1 mph 18.4 mph N/A   Clear
12:55 PM 65.7 °F 44.1 °F 46% 30.11 in 10.0 mi WNW 10.4 mph - N/A   Clear
12:56 PM 65.7 °F 43.9 °F 45% 30.11 in 10.0 mi WNW 9.2 mph - N/A   Clear
1:15 PM 66.2 °F 43.5 °F 44% 30.11 in 10.0 mi WNW 8.1 mph 16.1 mph N/A   Clear
1:16 PM 66.2 °F 43.5 °F 44% 30.11 in 10.0 mi WNW 9.2 mph 16.1 mph N/A   Clear
1:39 PM 66.7 °F 40.8 °F 39% 30.11 in 10.0 mi West 12.7 mph 18.4 mph N/A   Clear
1:56 PM 66.6 °F 41.0 °F 39% 30.10 in 10.0 mi West 8.1 mph 16.1 mph N/A   Clear
2:15 PM 67.1 °F 41.4 °F 39% 30.10 in 10.0 mi West 10.4 mph 16.1 mph N/A   Clear
2:16 PM 67.1 °F 41.0 °F 39% 30.10 in 10.0 mi West 11.5 mph 16.1 mph N/A   Clear
2:35 PM 67.1 °F 41.5 °F 39% 30.08 in 10.0 mi WNW 6.9 mph - N/A   Clear
2:55 PM 67.1 °F 40.8 °F 38% 30.08 in 10.0 mi West 9.2 mph 17.3 mph N/A   Clear
3:18 PM 67.1 °F 41.0 °F 39% 30.08 in 10.0 mi WNW 8.1 mph - N/A   Clear
3:36 PM 67.1 °F 38.7 °F 35% 30.09 in 10.0 mi West 8.1 mph - N/A   Clear
3:55 PM 66.7 °F 38.1 °F 35% 30.09 in 10.0 mi NW 8.1 mph - N/A   Clear
3:56 PM 66.7 °F 38.5 °F 35% 30.09 in 10.0 mi NW 8.1 mph - N/A   Clear
4:15 PM 66.2 °F 38.8 °F 37% 30.09 in 10.0 mi NW 6.9 mph - N/A   Clear
4:16 PM 66.2 °F 38.5 °F 36% 30.09 in 10.0 mi NW 8.1 mph - N/A   Clear
4:39 PM 65.8 °F 38.8 °F 37% 30.10 in 10.0 mi WNW 9.2 mph - N/A   Clear
4:57 PM 66.0 °F 37.2 °F 35% 30.11 in 10.0 mi NW 5.8 mph - N/A   Clear
5:15 PM 65.7 °F 39.2 °F 38% 30.11 in 10.0 mi West 4.6 mph - N/A   Clear
5:16 PM 65.5 °F 38.8 °F 38% 30.11 in 10.0 mi West 4.6 mph - N/A   Clear
5:35 PM 64.4 °F 38.7 °F 39% 30.11 in 10.0 mi West 5.8 mph - N/A   Clear
5:36 PM 64.4 °F 38.5 °F 38% 30.11 in 10.0 mi West 5.8 mph - N/A   Clear
5:55 PM 64.4 °F 39.0 °F 39% 30.11 in 10.0 mi WNW 3.5 mph - N/A   Clear
6:18 PM 62.8 °F 39.9 °F 43% 30.11 in 10.0 mi WNW 3.5 mph - N/A   Clear
6:36 PM 61.0 °F 41.7 °F 49% 30.11 in 10.0 mi West 3.5 mph - N/A   Clear
6:55 PM 60.1 °F 42.6 °F 53% 30.11 in 10.0 mi West 3.5 mph - N/A   Clear
6:56 PM 59.9 °F 42.4 °F 52% 30.11 in 10.0 mi Calm Calm - N/A   Clear
7:15 PM 58.3 °F 45.3 °F 62% 30.11 in 10.0 mi Calm Calm - N/A   Clear
7:39 PM 56.5 °F 43.2 °F 61% 30.10 in 7.0 mi South 3.5 mph - N/A   Clear
7:57 PM 56.7 °F 43.9 °F 62% 30.11 in 10.0 mi SSW 3.5 mph - N/A   Clear
8:15 PM 55.4 °F 45.0 °F 68% 30.11 in 10.0 mi Calm Calm - N/A   Clear
8:16 PM 55.2 °F 45.1 °F 69% 30.11 in 10.0 mi Calm Calm - N/A   Clear
8:35 PM 55.6 °F 45.1 °F 68% 30.11 in 10.0 mi Calm Calm - N/A   Clear
8:55 PM 54.9 °F 47.8 °F 77% 30.11 in 10.0 mi Calm Calm - N/A   Clear
9:18 PM 55.8 °F 48.2 °F 76% 30.11 in 10.0 mi Calm Calm - N/A   Clear
9:36 PM 56.3 °F 47.1 °F 71% 30.12 in 10.0 mi Calm Calm - N/A   Scattered Clouds
9:55 PM 56.5 °F 45.9 °F 68% 30.12 in 10.0 mi SSW 3.5 mph - N/A   Mostly Cloudy
10:15 PM 56.3 °F 47.5 °F 72% 30.12 in 10.0 mi Calm Calm - N/A   Scattered Clouds
10:39 PM 56.7 °F 46.4 °F 69% 30.13 in 10.0 mi Calm Calm - N/A   Clear
10:57 PM 56.5 °F 46.2 °F 68% 30.13 in 10.0 mi Calm Calm - N/A   Scattered Clouds
11:15 PM 56.3 °F 45.5 °F 67% 30.12 in 10.0 mi SSW 3.5 mph - N/A   Scattered Clouds
11:35 PM 56.5 °F 44.8 °F 65% 30.12 in 10.0 mi SW 3.5 mph - N/A   Scattered Clouds
11:55 PM 56.3 °F 45.0 °F 66% 30.12 in 10.0 mi SW 3.5 mph - N/A   Clear